1489579200.01,37252,11.19,73638.8,-2.59,-8.21,-8.63,0,*59
1489579201.25,37253,11.19,73628.5,-2.59,-8.55,-8.81,0,*57
1489579202.5,37254,11.19,73628.8,-2.59,-9.45,-9.97,0,*56
1489579203.74,37255,11.19,73624.8,-2.59,-9.57,-9.89,0,*5B
1489579204.97,37256,11.19,73620.0,-2.59,-9.01,-9.27,0,*5F
1489579206.18,37257,11.19,73616.5,-2.61,-8.63,-9.01,0,*54
1489579207.39,37258,11.19,73618.8,-2.61,-8.07,-8.33,0,*59
1489579208.67,37259,11.19,73618.8,-2.59,-7.95,-8.11,0,*57
1489579209.94,37260,11.19,73622.3,-2.59,-7.05,-7.39,0,*51
1489579211.16,37261,11.19,73624.3,-2.57,-7.11,-7.35,0,*57
1489579212.41,37262,11.19,73626.3,-2.55,-7.19,-7.35,0,*5E
1489579213.61,37263,11.19,73632.8,-2.53,-7.49,-7.87,0,*55
1489579214.83,37264,11.19,73628.8,-2.51,-8.25,-8.63,0,*50
1489579216.1,37265,11.19,73626.0,-2.51,-7.73,-7.99,0,*57
1489579217.3,37266,11.19,73620.0,-2.49,-7.87,-8.37,0,*5D
1489579218.49,37267,11.19,73626.0,-2.49,-8.37,-8.75,0,*5E
1489579219.73,37268,11.19,73628.3,-2.51,-8.37,-8.81,0,*53
1489579220.94,37269,11.19,73630.8,-2.51,-8.21,-8.55,0,*5C
1489579222.15,37270,11.19,73632.0,-2.51,-8.33,-8.63,0,*52
1489579223.36,37271,11.19,73634.5,-2.51,-8.25,-8.55,0,*51
1489579224.61,37272,11.19,73634.3,-2.51,-7.87,-8.07,0,*52
1489579225.85,37273,11.19,73634.3,-2.49,-7.27,-7.57,0,*5A
1489579227.11,37274,11.19,73634.0,-2.45,-7.57,-7.91,0,*5C
1489579228.35,37275,11.19,73634.0,-2.43,-7.69,-8.03,0,*52
1489579229.6,37276,11.19,73630.5,-2.45,-7.65,-7.91,0,*5F
1489579230.83,37277,11.19,73628.5,-2.43,-7.15,-7.43,0,*50
1489579232.04,37278,11.19,73636.5,-2.39,-6.43,-6.81,0,*5F
1489579233.26,37279,11.19,73630.3,-2.37,-6.39,-6.69,0,*5B
1489579234.51,37280,11.19,73622.8,-2.37,-6.81,-7.05,0,*55
1489579235.73,37281,11.19,73620.5,-2.35,-6.73,-7.01,0,*5F
1489579236.96,37282,11.19,73616.8,-2.35,-7.23,-7.57,0,*5B
1489579238.18,37283,11.19,73618.8,-2.35,-7.27,-7.53,0,*5A
1489579239.4,37284,11.19,73620.5,-2.33,-6.85,-7.15,0,*50
1489579240.61,37285,11.19,73622.3,-2.31,-6.85,-7.23,0,*56
1489579241.88,37286,11.19,73620.8,-2.29,-7.27,-7.65,0,*57
1489579243.14,37287,11.19,73626.0,-2.27,-6.93,-7.35,0,*53
1489579244.35,37288,11.19,73628.3,-2.27,-6.81,-7.23,0,*58
1489579245.6,37289,11.19,73632.0,-2.27,-7.05,-7.43,0,*52
1489579246.85,37290,11.19,73626.5,-2.27,-7.05,-7.57,0,*5F
1489579248.1,37291,11.19,73628.0,-2.23,-7.69,-8.07,0,*5A
1489579249.33,37292,11.19,73630.3,-2.27,-7.35,-7.83,0,*57
1489579250.6,37293,11.19,73626.3,-2.21,-7.27,-7.69,0,*57
1489579251.86,37294,11.19,73630.0,-2.23,-6.93,-7.35,0,*55
1489579253.11,37295,11.19,73618.3,-2.21,-6.77,-7.27,0,*5F
1489579254.39,37296,11.19,73616.5,-2.21,-6.97,-7.39,0,*5D
1489579255.58,37297,11.19,73616.5,-2.19,-6.73,-7.15,0,*53
1489579256.82,37298,11.19,73616.3,-2.17,-6.55,-6.93,0,*59
1489579258.06,37299,11.19,73616.8,-2.17,-6.69,-6.97,0,*53
1489579259.29,37300,11.19,73614.5,-2.15,-6.81,-7.27,0,*5C
1489579260.55,37301,11.19,73620.0,-2.15,-6.93,-7.35,0,*5D
1489579261.77,37302,11.19,73628.5,-2.13,-6.89,-7.23,0,*54
1489579263.05,37303,11.19,73622.0,-2.13,-7.57,-7.99,0,*56
1489579264.29,37304,11.19,73630.3,-2.13,-7.23,-7.57,0,*50
1489579265.54,37305,11.19,73630.0,-2.13,-7.19,-7.57,0,*58
1489579266.79,37306,11.19,73632.3,-2.11,-6.89,-7.39,0,*59
1489579268.03,37307,11.19,73632.5,-2.11,-7.05,-7.53,0,*51
1489579269.31,37308,11.19,73634.5,-2.11,-6.97,-7.27,0,*57
1489579270.53,37309,11.19,73630.0,-2.09,-6.59,-7.01,0,*59
1489579271.75,37310,11.19,73642.0,-2.09,-6.19,-6.59,0,*59
1489579272.99,37311,11.19,73634.8,-2.09,-6.63,-7.01,0,*59
1489579274.21,37312,11.19,73634.5,-2.09,-6.77,-7.01,0,*5F
1489579275.49,37313,11.19,73640.3,-2.07,-6.97,-7.35,0,*59
1489579276.74,37314,11.19,73644.0,-2.07,-6.85,-7.35,0,*5D
1489579277.95,37315,11.19,73640.3,-2.05,-6.43,-6.81,0,*5A
1489579279.14,37316,11.19,73648.8,-2.05,-6.05,-6.55,0,*52
1489579280.34,37317,11.19,73644.3,-2.05,-6.47,-6.85,0,*58
1489579281.57,37318,11.19,73650.5,-2.05,-6.81,-7.27,0,*54
1489579282.82,37319,11.19,73648.3,-2.01,-6.97,-7.31,0,*51
1489579284.04,37320,11.19,73648.5,-2.01,-6.81,-7.31,0,*5C
1489579285.26,37321,11.19,73650.8,-2.01,-6.55,-6.97,0,*59
1489579286.46,37322,11.19,73652.5,-2.01,-6.77,-7.11,0,*55
1489579287.67,37323,11.19,73646.5,-2.01,-6.69,-7.05,0,*5E
1489579288.91,37324,11.19,73646.5,-2.01,-6.63,-6.97,0,*59
1489579290.13,37325,11.19,73644.5,-1.99,-6.77,-7.19,0,*58
1489579291.33,37326,11.19,73634.3,-2.01,-6.43,-6.81,0,*5E
1489579292.53,37327,11.19,73640.5,-2.01,-6.55,-6.89,0,*50
1489579293.77,37328,11.19,73636.8,-2.01,-6.63,-6.93,0,*51
1489579294.96,37329,11.19,73632.3,-2.01,-6.39,-6.69,0,*5A
1489579296.23,37330,11.19,73628.3,-1.99,-5.89,-6.19,0,*5F
1489579297.48,37331,11.19,73634.5,-2.01,-6.19,-6.63,0,*5B
1489579298.73,37332,11.19,73626.0,-1.99,-6.63,-7.11,0,*53
1489579299.97,37333,11.19,73628.3,-1.99,-6.89,-7.31,0,*54
1489579301.25,37334,11.19,73630.5,-1.99,-7.57,-7.99,0,*53
1489579302.47,37335,11.19,73634.0,-1.99,-6.39,-6.77,0,*5A
1489579303.69,37336,11.19,73636.0,-1.99,-6.31,-6.69,0,*5E
1489579304.91,37337,11.19,73640.5,-1.97,-6.51,-6.93,0,*52
1489579306.13,37338,11.19,73634.5,-1.95,-6.47,-6.89,0,*53
1489579307.35,37339,11.19,73636.3,-1.95,-6.47,-6.77,0,*53
1489579308.57,37340,11.19,73626.0,-1.95,-6.05,-6.39,0,*51
1489579309.79,37341,11.19,73624.3,-1.95,-6.05,-6.35,0,*5C
1489579310.98,37342,11.19,73626.0,-1.97,-6.35,-6.77,0,*58
1489579312.2,37343,11.19,73638.8,-1.95,-6.39,-6.73,0,*53
1489579313.43,37344,11.19,73626.8,-1.95,-6.35,-6.77,0,*5C
1489579314.66,37345,11.19,73620.8,-1.95,-6.73,-7.05,0,*5B
1489579315.92,37346,11.19,73622.0,-1.95,-7.19,-7.57,0,*52
1489579317.11,37347,11.19,73622.0,-1.97,-8.33,-8.89,0,*5A
1489579318.3,37348,11.19,73636.8,-1.97,-7.87,-8.25,0,*53
1489579319.54,37349,11.19,73640.3,-1.99,-8.11,-8.41,0,*5E
1489579320.76,37350,11.19,73638.3,-1.99,-8.25,-8.55,0,*54
1489579321.98,37351,11.19,73626.3,-2.01,-9.45,-9.93,0,*5B
1489579323.21,37352,11.19,73616.3,-2.07,-9.97,-10.49,0,*6E
1489579324.41,37353,11.19,73576.5,-2.09,-9.67,-10.01,0,*62
1489579325.64,37354,11.19,73616.8,-2.11,-9.27,-9.71,0,*57
1489579326.84,37355,11.19,73624.8,-2.15,-8.75,-9.23,0,*53
1489579328.03,37356,11.19,73628.5,-2.15,-8.67,-9.23,0,*53
1489579329.24,37357,11.19,73638.8,-2.15,-8.89,-9.27,0,*56
1489579330.44,37358,11.19,73634.0,-2.15,-8.59,-8.89,0,*51
1489579331.66,37359,11.19,73628.0,-2.17,-8.45,-9.01,0,*5E
1489579332.87,37360,11.19,73614.0,-2.19,-9.71,-10.09,0,*6C
1489579334.06,37361,11.19,73616.3,-2.19,-9.27,-9.67,0,*5E
1489579335.3,37362,11.19,73626.0,-2.23,-9.37,-9.75,0,*56
1489579336.5,37363,11.19,73622.5,-2.27,-10.05,-10.53,0,*56
1489579337.74,37364,11.19,73618.8,-2.29,-10.31,-10.45,0,*5F
1489579338.96,37365,11.19,73630.8,-2.29,-8.41,-8.59,0,*54
1489579340.2,37366,11.19,73636.3,-2.33,-7.91,-8.33,0,*52
1489579341.43,37367,11.19,73628.0,-2.31,-7.23,-7.73,0,*53
1489579342.66,37368,11.19,73634.0,-2.33,-6.73,-7.11,0,*5E
1489579343.89,37369,11.19,73624.8,-2.27,-6.35,-6.63,0,*5C
1489579345.14,37370,11.19,73626.5,-2.29,-6.19,-6.55,0,*51
1489579346.36,37371,11.19,73626.0,-2.27,-6.77,-7.05,0,*52
1489579347.59,37372,11.19,73620.5,-2.27,-7.73,-8.17,0,*58
1489579348.81,37373,11.19,73620.5,-2.29,-8.29,-8.59,0,*5D
1489579350.06,37374,11.19,73632.0,-2.29,-7.73,-8.17,0,*50
1489579351.31,37375,11.19,73620.3,-2.29,-8.11,-8.41,0,*59
1489579352.58,37376,11.19,73630.5,-2.29,-7.73,-8.03,0,*57
1489579353.82,37377,11.19,73640.0,-2.33,-8.03,-8.33,0,*56
1489579355.05,37378,11.19,73634.8,-2.33,-8.17,-8.63,0,*59
1489579356.27,37379,11.19,73574.5,-2.33,-8.75,-9.19,0,*50
1489579357.53,37380,11.19,73602.0,-2.33,-8.85,-9.15,0,*55
1489579358.72,37381,11.19,73628.5,-2.35,-8.97,-9.31,0,*57
1489579359.95,37382,11.19,73632.3,-2.39,-9.23,-9.53,0,*52
1489579361.18,37383,11.19,73652.0,-2.41,-8.55,-8.85,0,*56
1489579362.43,37384,11.19,73640.8,-2.41,-9.53,-9.93,0,*50
1489579363.65,37385,11.19,73634.3,-2.41,-8.41,-8.71,0,*5E
1489579364.87,37386,11.19,73646.0,-2.45,-7.95,-8.17,0,*5F
1489579366.07,37387,11.19,73642.3,-2.43,-9.31,-9.79,0,*51
1489579367.28,37388,11.19,73638.5,-2.45,-8.85,-9.19,0,*50
1489579368.52,37389,11.19,73640.3,-2.51,-9.31,-9.61,0,*55
1489579369.74,37390,11.19,73644.3,-2.51,-9.01,-9.23,0,*58
1489579371.0,37391,11.19,73626.5,-2.51,-9.05,-9.37,0,*58
1489579372.22,37392,11.19,73590.3,-2.53,-8.81,-8.97,0,*5F
1489579373.42,37393,11.19,73598.5,-2.53,-8.93,-9.19,0,*5A
1489579374.66,37394,11.19,73630.0,-2.55,-8.55,-8.81,0,*51
1489579375.9,37395,11.19,73620.5,-2.55,-8.81,-9.05,0,*54
1489579377.12,37396,11.19,73630.8,-2.57,-9.27,-9.57,0,*5F
1489579378.35,37397,11.19,73614.8,-2.59,-9.01,-9.19,0,*5E
1489579379.57,37398,11.19,73626.8,-2.59,-8.67,-8.89,0,*58
1489579380.77,37399,11.19,73644.5,-2.61,-8.67,-8.89,0,*52
1489579381.99,37400,11.19,73642.8,-2.63,-8.41,-8.67,0,*53
1489579383.21,37401,11.19,73618.5,-2.63,-8.67,-8.85,0,*5A
1489579384.46,37402,11.19,73624.0,-2.63,-9.19,-9.41,0,*58
1489579385.69,37403,11.25,73672.8,-2.63,-8.97,-9.05,0,*5E
1489579386.92,37404,11.19,73638.0,-2.67,-9.71,-10.09,0,*60
1489579388.17,37405,11.19,73638.0,-2.67,-9.83,-10.09,0,*6C
1489579389.39,37406,11.19,73654.0,-2.73,-9.19,-9.49,0,*55
1489579390.59,37407,11.19,73644.3,-2.73,-8.37,-8.63,0,*50
1489579391.81,37408,11.19,73648.5,-2.77,-9.67,-10.05,0,*66
1489579393.05,37409,11.19,73648.5,-2.75,-9.01,-9.27,0,*5D
1489579394.28,37410,11.19,73634.8,-2.77,-9.93,-10.19,0,*69
1489579395.47,37411,11.19,73624.5,-2.79,-9.67,-9.89,0,*5C
1489579396.69,37412,11.19,73616.8,-2.81,-8.45,-8.71,0,*5F
1489579397.93,37413,11.19,73624.0,-2.81,-8.75,-9.11,0,*5A
1489579399.15,37414,11.19,73638.8,-2.79,-8.63,-8.81,0,*55
1489579400.36,37415,11.19,73646.0,-2.81,-8.33,-8.59,0,*53
1489579401.58,37416,11.19,73636.0,-2.81,-8.21,-8.45,0,*5E
1489579402.8,37417,11.19,73656.8,-2.81,-8.17,-8.41,0,*5E
1489579404.02,37418,11.19,73646.5,-2.83,-8.07,-8.45,0,*56
1489579405.22,37419,11.19,73624.0,-2.83,-8.89,-9.31,0,*53
1489579406.45,37420,11.19,73584.8,-2.85,-9.75,-10.09,0,*6E
1489579407.67,37421,11.19,73630.8,-2.85,-8.75,-8.93,0,*54
1489579408.89,37422,11.19,73638.0,-2.87,-8.55,-8.81,0,*54
1489579410.11,37423,11.19,73630.3,-2.87,-8.51,-8.67,0,*59
1489579411.34,37424,11.19,73638.8,-2.87,-8.17,-8.51,0,*59
1489579412.53,37425,11.19,73640.8,-2.87,-8.29,-8.63,0,*54
1489579413.78,37426,11.19,73638.3,-2.87,-7.73,-8.03,0,*51
1489579415.0,37427,11.19,73636.8,-2.87,-7.49,-7.73,0,*51
1489579416.25,37428,11.19,73640.3,-2.87,-7.57,-7.91,0,*5D
1489579417.53,37429,11.19,73640.5,-2.85,-7.77,-8.11,0,*5B
1489579418.76,37430,11.19,73644.3,-2.87,-7.23,-7.61,0,*58
1489579420.03,37431,11.25,73638.3,-2.85,-7.39,-7.69,0,*58
1489579421.27,37432,11.19,73638.3,-2.83,-7.65,-7.95,0,*57
1489579422.49,37433,11.19,73638.5,-2.83,-7.53,-7.95,0,*53
1489579423.73,37434,11.19,73640.0,-2.83,-7.57,-7.95,0,*50
1489579424.96,37435,11.19,73642.0,-2.85,-7.53,-7.87,0,*50
1489579426.18,37436,11.19,73632.3,-2.83,-7.19,-7.65,0,*57
1489579427.43,37437,11.19,73632.3,-2.83,-7.43,-7.77,0,*5A
1489579428.68,37438,11.19,73632.0,-2.83,-7.05,-7.43,0,*50
1489579429.9,37439,11.19,73636.3,-2.83,-7.15,-7.57,0,*55
1489579431.13,37440,11.19,73638.3,-2.83,-7.15,-7.57,0,*5B
1489579432.37,37441,11.19,73640.8,-2.85,-7.53,-7.95,0,*50
1489579433.61,37442,11.19,73632.5,-2.81,-7.39,-7.83,0,*5C
1489579434.83,37443,11.19,73632.8,-2.83,-8.07,-8.33,0,*59
1489579436.07,37444,11.19,73634.5,-2.83,-7.39,-7.77,0,*53
1489579437.3,37445,11.19,73626.5,-2.85,-7.53,-7.87,0,*57
1489579438.57,37446,11.19,73628.0,-2.81,-7.35,-7.73,0,*5B
1489579439.84,37447,11.19,73638.3,-2.81,-7.27,-7.61,0,*5A
1489579441.06,37448,11.19,73640.3,-2.81,-6.69,-7.15,0,*5D
1489579442.3,37449,11.19,73644.0,-2.81,-6.55,-7.01,0,*56
1489579443.5,37450,11.19,73648.0,-2.79,-6.69,-7.11,0,*57
1489579444.73,37451,11.19,73652.8,-2.79,-6.51,-6.93,0,*56
1489579445.98,37452,11.19,73658.5,-2.77,-6.55,-6.93,0,*5F
1489579447.23,37453,11.25,73666.3,-2.75,-6.51,-6.93,0,*58
1489579448.48,37454,11.19,73664.0,-2.75,-6.59,-7.01,0,*5D
1489579449.74,37455,11.19,73664.5,-2.75,-6.51,-7.01,0,*54
1489579450.99,37456,11.19,73664.5,-2.75,-6.73,-7.31,0,*54
1489579452.22,37457,11.19,73666.8,-2.75,-6.73,-7.15,0,*53
1489579453.47,37458,11.19,73662.3,-2.75,-6.85,-7.39,0,*5B
1489579454.69,37459,11.19,73662.3,-2.73,-7.01,-7.53,0,*5D
1489579455.91,37460,11.19,73664.3,-2.73,-6.77,-7.31,0,*53
1489579457.14,37461,11.19,73658.3,-2.73,-6.77,-7.31,0,*52
1489579458.37,37462,11.19,73662.0,-2.69,-6.81,-7.39,0,*5B
1489579459.6,37463,11.19,73664.5,-2.73,-6.85,-7.43,0,*58
1489579460.82,37464,11.19,73662.8,-2.69,-6.73,-7.27,0,*5F
1489579462.03,37465,11.19,73666.5,-2.69,-6.55,-7.11,0,*5F
1489579463.24,37466,11.19,73662.3,-2.69,-6.55,-7.15,0,*58
1489579464.46,37467,11.19,73666.8,-2.73,-6.73,-7.31,0,*50
1489579465.69,37468,11.19,73666.0,-2.69,-6.69,-7.35,0,*5B
1489579466.89,37469,11.19,73664.5,-2.69,-6.85,-7.49,0,*53
1489579468.09,37470,11.19,73662.3,-2.69,-6.85,-7.49,0,*5B
1489579469.3,37471,11.19,73662.0,-2.69,-6.55,-7.15,0,*5E
1489579470.5,37472,11.19,73666.0,-2.69,-6.47,-7.15,0,*5E
1489579471.7,37473,11.19,73664.8,-2.69,-6.81,-7.49,0,*5C
1489579472.96,37474,11.19,73666.5,-2.69,-6.97,-7.65,0,*52
1489579474.18,37475,11.19,73664.5,-2.69,-7.49,-8.03,0,*5E
1489579475.42,37476,11.19,73664.3,-2.69,-7.39,-8.03,0,*5A
1489579476.67,37477,11.19,73668.8,-2.73,-7.39,-7.99,0,*5C
1489579477.89,37478,11.19,73670.8,-2.73,-7.53,-8.07,0,*57
1489579479.13,37479,11.19,73668.0,-2.73,-7.31,-7.95,0,*56
1489579480.36,37480,11.19,73672.0,-2.73,-7.15,-7.65,0,*59
1489579481.59,37481,11.19,73676.0,-2.69,-7.35,-7.83,0,*59
1489579482.83,37482,11.19,73670.8,-2.73,-7.05,-7.69,0,*56
1489579484.04,37483,11.19,73672.0,-2.73,-7.19,-7.83,0,*5E
1489579485.27,37484,11.19,73674.3,-2.69,-7.23,-7.77,0,*50
1489579486.51,37485,11.19,73674.8,-2.73,-7.31,-7.99,0,*59
1489579487.72,37486,11.19,73676.8,-2.73,-7.19,-7.83,0,*5B
1489579488.96,37487,11.19,73680.5,-2.73,-7.31,-7.95,0,*57
1489579490.2,37488,11.19,73680.5,-2.73,-7.27,-7.99,0,*53
1489579491.46,37489,11.19,73680.3,-2.75,-7.15,-7.73,0,*51
1489579492.74,37490,11.19,73682.3,-2.75,-7.05,-7.73,0,*58
1489579494.02,37491,11.19,73670.0,-2.75,-7.01,-7.57,0,*5B
1489579495.26,37492,11.19,73658.0,-2.77,-7.23,-7.99,0,*58
1489579496.5,37493,11.19,73648.8,-2.77,-7.49,-8.03,0,*59
1489579497.75,37494,11.19,73658.0,-2.75,-7.15,-7.69,0,*56
1489579498.98,37495,11.19,73646.8,-2.75,-7.15,-7.83,0,*53
1489579500.23,37496,11.19,73650.3,-2.75,-7.83,-8.51,0,*5F
1489579501.47,37497,11.19,73640.5,-2.77,-8.03,-8.71,0,*59
1489579502.69,37498,11.19,73642.3,-2.77,-7.87,-8.55,0,*53
1489579503.92,37499,11.19,73632.5,-2.77,-8.03,-8.67,0,*50
1489579505.14,37500,11.19,73640.3,-2.79,-8.17,-8.81,0,*52
1489579506.33,37501,11.19,73640.5,-2.79,-8.17,-8.71,0,*5C
1489579507.55,37502,11.19,73668.5,-2.81,-8.33,-8.97,0,*56
1489579508.8,37503,11.19,73640.0,-2.81,-10.49,-11.07,0,*52
1489579510.06,37504,11.19,73628.8,-2.85,-10.23,-10.79,0,*55
1489579511.29,37505,11.19,73632.5,-2.87,-8.97,-9.49,0,*5B
1489579512.51,37506,11.19,73638.5,-2.89,-8.41,-9.05,0,*55
1489579513.74,37507,11.19,73632.3,-2.89,-8.55,-9.19,0,*5C
1489579514.95,37508,11.19,73614.5,-2.89,-8.75,-9.23,0,*58
1489579516.19,37509,11.19,73614.3,-2.91,-9.15,-9.71,0,*50
1489579517.39,37510,11.19,73620.8,-2.95,-8.59,-9.01,0,*52
1489579518.62,37511,11.19,73652.3,-2.97,-9.19,-9.75,0,*57
1489579519.84,37512,11.19,73656.8,-2.97,-8.75,-9.31,0,*5F
1489579521.06,37513,11.19,73658.8,-2.99,-8.89,-9.41,0,*54
1489579522.27,37514,11.19,73652.3,-2.99,-8.71,-9.19,0,*59
1489579523.5,37515,11.19,73632.8,-2.99,-8.93,-9.45,0,*5D
1489579524.73,37516,11.19,73664.5,-3.03,-8.55,-9.11,0,*57
1489579525.96,37517,11.19,73668.8,-3.01,-8.55,-9.05,0,*51
1489579527.2,37518,11.19,73670.8,-3.05,-8.81,-9.23,0,*57
1489579528.4,37519,11.19,73668.3,-3.03,-9.31,-9.89,0,*5A
1489579529.63,37520,11.19,73654.5,-3.07,-9.83,-10.27,0,*61
1489579530.86,37521,11.19,73644.5,-3.07,-9.41,-9.71,0,*55
1489579532.05,37522,11.19,73642.0,-3.07,-8.59,-8.97,0,*57
1489579533.27,37523,11.19,73628.0,-3.09,-8.33,-8.63,0,*5F
1489579534.49,37524,11.19,73636.5,-3.09,-8.21,-8.71,0,*58
1489579535.71,37525,11.19,73646.8,-3.11,-8.63,-9.11,0,*51
1489579536.91,37526,11.19,73644.3,-3.11,-8.67,-9.01,0,*57
1489579538.12,37527,11.19,73614.8,-3.11,-8.55,-8.89,0,*56
1489579539.36,37528,11.19,73610.3,-3.11,-8.81,-9.37,0,*54
1489579540.59,37529,11.19,73628.8,-3.11,-9.37,-9.71,0,*5B
1489579541.87,37530,11.19,73630.0,-3.13,-9.11,-9.57,0,*51
1489579543.09,37531,11.19,73668.3,-3.13,-8.93,-9.31,0,*5B
1489579544.32,37532,11.19,73642.0,-3.13,-8.63,-9.05,0,*50
1489579545.6,37533,11.19,73656.5,-3.21,-9.11,-9.41,0,*54
1489579546.82,37534,11.19,73660.5,-3.21,-8.59,-8.97,0,*54
1489579548.05,37535,11.19,73666.3,-3.19,-8.85,-9.15,0,*54
1489579549.33,37536,11.19,73648.5,-3.21,-9.11,-9.53,0,*52
1489579550.59,37537,11.19,73670.5,-3.21,-8.51,-8.85,0,*5C
1489579551.81,37538,11.19,73668.5,-3.23,-8.51,-8.97,0,*52
1489579553.0,37539,11.19,73670.3,-3.23,-8.25,-8.59,0,*52
1489579554.24,37540,11.19,73672.3,-3.23,-7.69,-8.03,0,*54
1489579555.46,37541,11.19,73674.8,-3.23,-7.77,-8.37,0,*5D
1489579556.69,37542,11.19,73650.5,-3.23,-8.71,-9.15,0,*56
1489579557.89,37543,11.19,73640.5,-3.23,-9.71,-10.23,0,*6B
1489579559.14,37544,11.19,73666.8,-3.25,-9.19,-9.49,0,*50
1489579560.38,37545,11.19,73660.8,-3.25,-8.81,-9.19,0,*54
1489579561.61,37546,11.19,73648.5,-3.27,-8.97,-9.37,0,*5E
1489579562.86,37547,11.19,73654.5,-3.29,-9.41,-9.75,0,*5D
1489579564.11,37548,11.19,73640.0,-3.29,-8.97,-9.37,0,*5E
1489579565.34,37549,11.19,73654.0,-3.29,-8.71,-9.05,0,*56
1489579566.58,37550,11.19,73664.8,-3.29,-8.45,-8.81,0,*54
1489579567.82,37551,11.19,73654.5,-3.29,-8.11,-8.59,0,*51
1489579569.03,37552,11.25,73642.3,-3.29,-8.33,-8.59,0,*52
1489579570.29,37553,11.19,73644.5,-3.33,-8.51,-8.89,0,*51
1489579571.52,37554,11.25,73672.8,-3.33,-8.71,-8.97,0,*5B
1489579572.74,37555,11.19,73680.0,-3.33,-8.21,-8.59,0,*5D
1489579573.97,37556,11.19,73662.3,-3.33,-8.45,-8.85,0,*5D
1489579575.2,37557,11.19,73670.3,-3.35,-7.95,-8.37,0,*51
1489579576.43,37558,11.19,73642.3,-3.33,-8.45,-8.85,0,*53
1489579577.64,37559,11.19,73630.5,-3.35,-8.89,-9.27,0,*5D
1489579578.87,37560,11.19,73626.0,-3.37,-8.67,-8.89,0,*50
1489579580.09,37561,11.25,73650.5,-3.37,-9.05,-9.27,0,*51
1489579581.31,37562,11.19,73652.3,-3.37,-8.33,-8.67,0,*53
1489579582.53,37563,11.19,73658.5,-3.37,-8.25,-8.63,0,*51
1489579583.78,37564,11.19,73648.3,-3.37,-9.05,-9.37,0,*55
1489579585.04,37565,11.19,73646.0,-3.39,-9.15,-9.45,0,*5E
1489579586.24,37566,11.25,73660.3,-3.39,-8.93,-9.27,0,*56
1489579587.47,37567,11.25,73658.3,-3.39,-9.37,-9.75,0,*5F
1489579588.68,37568,11.25,73672.3,-3.45,-9.53,-9.71,0,*5D
1489579589.88,37569,11.19,73668.5,-3.45,-8.75,-9.23,0,*5E
1489579591.1,37570,11.19,73678.0,-3.45,-8.51,-8.85,0,*5D
1489579592.29,37571,11.19,73650.3,-3.45,-8.45,-8.75,0,*56
1489579593.52,37572,11.25,73642.3,-3.45,-9.01,-9.37,0,*53
1489579594.77,37573,11.25,73632.0,-3.47,-9.01,-9.41,0,*51
1489579596.02,37574,11.25,73644.8,-3.47,-8.85,-9.11,0,*5E
1489579597.23,37575,11.25,73660.8,-3.47,-8.45,-8.63,0,*57
1489579598.42,37576,11.19,73656.8,-3.49,-8.33,-8.55,0,*5E
1489579599.61,37577,11.19,73656.8,-3.49,-8.33,-8.63,0,*5A
1489579600.83,37578,11.25,73664.3,-3.49,-8.25,-8.51,0,*53
1489579602.08,37579,11.25,73672.5,-3.49,-8.11,-8.51,0,*55
1489579603.27,37580,11.25,73660.0,-3.49,-8.21,-8.63,0,*51
1489579604.46,37581,11.19,73654.0,-3.49,-8.21,-8.63,0,*50
1489579605.65,37582,11.25,73666.5,-3.49,-8.37,-8.67,0,*50
1489579606.84,37583,11.19,73664.0,-3.49,-8.25,-8.55,0,*53
1489579608.03,37584,11.25,73670.8,-3.49,-8.33,-8.63,0,*56
1489579609.26,37585,11.25,73656.5,-3.51,-8.63,-9.01,0,*5E
1489579610.53,37586,11.25,73662.5,-3.51,-8.51,-8.81,0,*55
1489579611.78,37587,11.25,73670.5,-3.51,-8.11,-8.45,0,*58
1489579613.03,37588,11.25,73660.3,-3.51,-8.11,-8.45,0,*57
1489579614.26,37589,11.19,73650.5,-3.53,-7.99,-8.37,0,*5E
1489579615.49,37590,11.25,73672.5,-3.53,-8.03,-8.37,0,*5A
1489579616.74,37591,11.25,73662.5,-3.51,-8.11,-8.45,0,*5F
1489579617.98,37592,11.25,73666.5,-3.51,-7.95,-8.25,0,*59
1489579619.27,37593,11.25,73666.8,-3.51,-7.73,-8.07,0,*50
1489579620.49,37594,11.25,73666.8,-3.51,-7.87,-8.21,0,*58
1489579621.75,37595,11.25,73664.3,-3.53,-7.57,-7.91,0,*52
1489579622.97,37596,11.25,73660.5,-3.51,-7.87,-8.25,0,*5E
1489579624.2,37597,11.25,73658.5,-3.53,-8.11,-8.37,0,*5E
1489579625.42,37598,11.19,73652.5,-3.51,-7.83,-8.25,0,*54
1489579626.64,37599,11.25,73652.8,-3.53,-7.91,-8.17,0,*55
1489579627.86,37600,11.25,73652.0,-3.53,-7.91,-8.17,0,*56
1489579629.08,37601,11.19,73652.8,-3.53,-7.77,-8.17,0,*5F
1489579630.3,37602,11.25,73656.0,-3.53,-7.77,-8.17,0,*5C
1489579631.56,37603,11.25,73652.8,-3.53,-7.73,-8.11,0,*5F
1489579632.83,37604,11.25,73662.0,-3.51,-7.69,-8.07,0,*56
1489579634.06,37605,11.19,73660.5,-3.53,-7.49,-7.73,0,*5B
1489579635.3,37606,11.25,73664.0,-3.51,-7.53,-7.95,0,*59
1489579636.55,37607,11.25,73666.8,-3.51,-7.99,-8.37,0,*59
1489579637.78,37608,11.25,73650.0,-3.53,-8.11,-8.41,0,*5A
1489579639.03,37609,11.19,73642.5,-3.53,-9.37,-9.61,0,*5D
1489579640.25,37610,11.25,73640.5,-3.55,-8.97,-9.23,0,*5E
1489579641.47,37611,11.19,73650.3,-3.55,-8.59,-8.93,0,*57
1489579642.67,37612,11.25,73658.8,-3.57,-8.59,-8.89,0,*5D
1489579643.92,37613,11.25,73660.0,-3.55,-8.25,-8.51,0,*50
1489579645.12,37614,11.19,73640.3,-3.57,-8.59,-8.97,0,*54
1489579646.32,37615,11.19,73650.8,-3.57,-8.59,-8.85,0,*56
1489579647.51,37616,11.19,73654.3,-3.57,-8.33,-8.63,0,*51
1489579648.72,37617,11.25,73640.5,-3.57,-8.17,-8.45,0,*52
1489579649.94,37618,11.19,73640.0,-3.59,-7.83,-8.17,0,*56
1489579651.22,37619,11.25,73638.5,-3.59,-7.77,-8.07,0,*5D
1489579652.44,37620,11.25,73640.5,-3.59,-7.83,-8.17,0,*5D
1489579653.66,37621,11.19,73646.0,-3.59,-7.83,-8.21,0,*59
1489579654.89,37622,11.25,73650.3,-3.59,-7.83,-8.21,0,*5A
1489579656.11,37623,11.19,73654.5,-3.59,-7.83,-8.21,0,*5B
1489579657.4,37624,11.19,73652.0,-3.59,-7.73,-8.07,0,*57
1489579658.62,37625,11.25,73658.0,-3.57,-7.91,-8.29,0,*58
1489579659.81,37626,11.19,73654.0,-3.57,-8.29,-8.55,0,*5C
1489579661.03,37627,11.25,73650.8,-3.57,-7.95,-8.29,0,*5E
1489579662.25,37628,11.25,73652.3,-3.57,-8.07,-8.33,0,*5E
1489579663.47,37629,11.19,73658.3,-3.61,-7.95,-8.33,0,*5E
1489579664.71,37630,11.19,73660.5,-3.59,-7.91,-8.29,0,*52
1489579665.94,37631,11.19,73656.8,-3.59,-8.17,-8.41,0,*5C
1489579667.15,37632,11.19,73664.3,-3.59,-8.29,-8.55,0,*57
1489579668.37,37633,11.25,73670.3,-3.59,-8.33,-8.71,0,*5B
1489579669.55,37634,11.25,73672.3,-3.61,-8.33,-8.67,0,*50
1489579670.74,37635,11.25,73682.5,-3.61,-8.33,-8.63,0,*55
1489579671.97,37636,11.19,73672.8,-3.61,-8.51,-8.89,0,*56
1489579673.16,37637,11.25,73676.5,-3.61,-8.33,-8.63,0,*57
1489579674.37,37638,11.25,73678.3,-3.65,-8.55,-8.85,0,*54
1489579675.59,37639,11.25,73674.8,-3.67,-8.41,-8.71,0,*59
1489579676.79,37640,11.25,73670.0,-3.65,-8.41,-8.67,0,*52
1489579678.04,37641,11.19,73658.0,-3.67,-7.99,-8.37,0,*5E
1489579679.29,37642,11.19,73666.5,-3.67,-7.99,-8.41,0,*5C
1489579680.51,37643,11.19,73666.5,-3.65,-7.91,-8.25,0,*55
1489579681.71,37644,11.19,73666.8,-3.65,-7.87,-8.17,0,*54
1489579682.94,37645,11.25,73670.0,-3.67,-7.87,-8.29,0,*5A
1489579684.17,37646,11.25,73670.0,-3.65,-7.99,-8.37,0,*5B
1489579685.39,37647,11.19,73666.8,-3.65,-7.83,-8.11,0,*55
1489579686.59,37648,11.19,73664.3,-3.65,-7.83,-8.17,0,*5C
1489579687.87,37649,11.19,73668.3,-3.67,-7.91,-8.11,0,*5A
1489579689.1,37650,11.19,73668.8,-3.65,-8.11,-8.37,0,*53
1489579690.32,37651,11.19,73668.0,-3.67,-8.37,-8.63,0,*55
1489579691.54,37652,11.19,73672.8,-3.67,-8.37,-8.55,0,*53
1489579692.82,37653,11.19,73670.3,-3.67,-8.51,-8.81,0,*5B
1489579694.07,37654,11.25,73678.5,-3.67,-8.29,-8.51,0,*5E
1489579695.29,37655,11.25,73680.8,-3.67,-8.29,-8.63,0,*5E
1489579696.52,37656,11.19,73686.3,-3.67,-8.63,-8.93,0,*5C
1489579697.74,37657,11.19,73688.3,-3.71,-8.75,-9.01,0,*57
1489579698.94,37658,11.19,73690.8,-3.69,-8.45,-8.71,0,*54
1489579700.13,37659,11.25,73698.0,-3.69,-8.33,-8.55,0,*52
1489579701.31,37660,11.25,73702.0,-3.69,-8.33,-8.55,0,*58
1489579702.51,37661,11.19,73698.3,-3.69,-8.29,-8.45,0,*53
1489579703.73,37662,11.19,73692.8,-3.71,-8.33,-8.59,0,*5F
1489579704.92,37663,11.19,73694.3,-3.69,-8.17,-8.41,0,*58
1489579706.15,37664,11.19,73698.3,-3.69,-8.07,-8.33,0,*5B
1489579707.37,37665,11.25,73702.3,-3.69,-7.95,-8.29,0,*55